Wetbulb
44.15 43.81 44.19 43.47 43.04 43.25 43.09 42.75 42.39 43.96 45.55 46.63 47.54 46.71 49.04 51.54 49.60 51.58 51.17 51.87 52.65 53.75 59.06 61.53 61.26 61.29 62.33 64.05 64.12 64.96 65.57 65.34
42.10 41.35 40.86 40.63 40.94 40.45 39.96 40.31 39.93 40.53 41.16 41.21 43.77 42.67 46.01 47.31 46.17 48.49 47.80 47.85 49.72 50.31 51.57 54.48 57.56 59.97 60.18 60.63 60.90 60.85 62.38 64.20
39.85 39.56 39.11 38.22 37.68 38.27 38.86 38.38 38.47 38.20 38.71 39.37 40.37 41.33 43.69 44.74 42.88 43.93 44.71 45.05 47.03 47.07 48.45 50.80 53.15 54.61 57.00 60.94 59.79 59.11 59.80 61.87
37.50 37.54 36.52 36.78 36.60 36.26 37.20 37.10 36.74 36.92 36.91 37.30 37.71 40.00 40.29 41.02 39.39 40.23 41.30 43.15 44.44 46.40 47.23 48.33 49.48 51.42 52.85 55.49 57.11 60.32 58.64 61.44
38.40 37.72 37.10 36.07 35.11 36.66 36.22 37.08 36.02 36.17 35.85 34.54 33.76 34.15 34.09 36.85 37.36 38.34 39.25 41.48 43.08 44.40 45.06 46.02 46.36 48.58 49.79 51.94 55.61 57.07 58.90 57.98
37.74 38.01 38.09 37.75 37.06 36.13 35.62 35.33 35.46 34.94 34.78 34.03 32.82 32.28 33.19 34.87 35.63 35.90 37.57 39.61 41.11 42.17 43.61 43.77 43.80 45.09 46.14 47.52 49.17 51.68 55.59 56.42
38.32 38.60 38.18 36.78 36.62 35.54 35.06 34.29 34.27 34.65 34.29 34.19 33.74 32.98 33.18 33.48 34.85 35.69 37.03 38.04 39.01 40.46 41.65 41.44 42.00 42.34 43.29 44.82 46.27 47.15 49.74 53.61
38.85 37.91 37.11 36.41 35.12 34.36 33.92 33.29 33.04 33.99 33.96 34.04 33.94 33.93 33.77 33.67 34.30 34.99 35.24 36.32 37.31 38.89 40.28 40.78 41.50 42.68 43.73 44.86 45.09 45.10 46.10 47.51
37.96 36.43 35.05 33.51 33.03 33.16 32.68 32.33 32.29 33.06 33.43 33.34 34.09 34.14 33.93 34.22 34.33 34.33 35.52 36.25 37.21 38.64 39.98 41.06 41.04 42.49 43.33 44.31 44.88 45.59 45.89 46.43
35.15 34.35 33.10 31.60 30.90 31.18 30.79 31.16 31.40 31.88 32.79 33.11 34.02 33.98 33.83 33.43 33.69 34.67 35.24 35.89 36.62 37.55 37.54 38.49 40.00 40.54 41.36 42.51 43.36 44.73 45.45 45.64
32.67 31.77 31.50 31.61 30.75 31.11 31.98 32.01 31.72 32.14 32.82 32.48 33.55 33.73 34.01 33.70 33.88 33.14 33.68 34.19 34.92 35.38 35.84 37.30 38.03 39.23 39.92 40.69 41.67 43.76 45.19 45.65
28.97 29.20 29.49 29.84 30.06 30.98 30.86 31.36 31.26 31.60 31.79 31.30 32.16 32.69 32.79 33.80 33.18 32.48 32.85 33.53 33.83 34.43 35.23 35.77 36.82 37.33 38.77 39.69 41.33 42.60 43.47 45.40
27.68 27.99 28.31 28.42 29.55 30.26 30.15 30.54 30.30 30.80 31.05 31.05 30.91 31.40 31.86 31.28 31.22 31.46 31.97 31.36 32.24 32.39 33.64 34.35 34.90 35.13 36.09 37.14 37.93 39.31 41.07 43.36
26.82 26.98 28.46 28.85 29.35 29.68 29.89 29.97 29.89 30.40 30.39 29.00 29.11 28.53 29.55 28.53 29.65 30.18 30.47 30.46 30.62 31.13 31.81 32.50 33.48 33.94 34.94 35.78 36.36 36.98 38.28 41.13
27.28 27.28 28.02 28.76 28.87 29.10 28.16 27.74 29.12 28.93 28.81 28.74 27.47 27.27 27.77 28.46 28.26 28.65 28.73 29.04 29.18 29.58 30.66 32.14 32.43 33.44 33.97 34.84 35.21 36.88 37.43 39.10
27.77 26.95 26.87 27.36 27.45 25.28 25.61 25.05 25.22 25.73 26.10 25.46 25.05 26.94 27.17 27.16 27.07 27.00 27.36 26.93 27.83 28.73 28.93 30.51 31.13 32.01 32.80 33.57 34.59 36.40 37.25 40.48
27.01 25.76 25.74 25.93 25.91 26.47 27.11 25.08 23.53 24.09 22.87 22.34 24.06 24.61 25.28 24.76 24.92 25.32 25.72 25.96 26.83 27.23 27.09 28.18 29.44 30.68 32.45 33.12 33.11 32.69 33.55 33.81
25.50 24.25 24.16 24.00 23.82 26.42 25.66 25.39 25.03 23.33 21.70 22.97 22.49 22.73 22.51 22.37 23.15 23.25 23.14 24.51 25.86 25.33 25.26 26.21 26.51 29.38 31.64 31.57 31.34 30.53 30.64 31.34
23.36 21.62 21.90 22.10 22.80 24.87 27.10 26.39 24.67 22.95 22.15 22.16 22.56 21.49 21.09 21.81 21.51 21.33 21.29 23.27 23.92 23.91 24.01 24.65 24.97 27.81 31.00 30.17 30.00 28.39 28.21 28.76
MSLP
1015.41 1015.20 1015.29 1015.41 1015.36 1015.23 1015.06 1014.82 1014.35 1013.94 1013.63 1013.50 1013.42 1013.22 1012.64 1012.14 1012.24 1012.18 1012.04 1011.78 1011.39 1011.11 1011.02 1011.25 1011.37 1011.11 1010.95 1011.18 1010.60 1011.44 1011.83 1011.62
1016.52 1016.69 1016.68 1016.52 1016.41 1016.16 1016.03 1015.77 1015.65 1014.94 1014.46 1014.34 1014.16 1014.50 1014.17 1013.74 1013.29 1012.90 1012.85 1012.55 1011.97 1011.66 1011.32 1011.08 1011.06 1010.86 1010.73 1010.52 1010.27 1010.69 1010.18 1011.84
1017.65 1017.81 1017.74 1017.58 1017.56 1017.54 1017.21 1016.91 1016.63 1016.36 1016.03 1015.97 1015.92 1015.25 1014.75 1014.59 1014.46 1013.99 1013.59 1013.17 1012.75 1012.13 1012.03 1011.72 1011.33 1011.09 1010.59 1010.15 1010.22 1010.17 1009.96 1010.86
1018.66 1018.79 1018.91 1018.67 1018.36 1018.29 1018.10 1017.91 1017.59 1017.49 1017.02 1016.40 1015.96 1015.65 1015.01 1014.83 1015.05 1014.82 1014.36 1013.60 1013.14 1012.59 1012.15 1012.03 1011.72 1011.37 1010.93 1010.47 1010.22 1009.59 1009.56 1009.52
1019.05 1019.28 1019.38 1019.44 1019.44 1019.31 1018.94 1018.70 1018.43 1017.90 1017.87 1017.28 1017.47 1017.66 1016.96 1016.26 1015.88 1015.38 1014.67 1014.08 1013.47 1013.01 1012.56 1012.17 1011.89 1011.59 1011.06 1010.69 1010.30 1009.79 1009.22 1009.71
1019.26 1019.55 1019.71 1019.83 1019.60 1019.43 1019.49 1019.30 1018.97 1018.92 1018.72 1017.73 1017.87 1017.94 1017.54 1017.05 1016.16 1015.47 1014.73 1014.31 1013.80 1013.27 1012.80 1012.83 1012.29 1011.83 1011.33 1010.87 1010.26 1009.81 1009.05 1008.92
1019.13 1019.48 1020.00 1020.15 1019.91 1019.66 1019.74 1019.80 1019.35 1019.01 1018.36 1017.73 1017.94 1017.81 1017.57 1017.14 1016.16 1015.46 1014.91 1014.55 1013.97 1013.37 1012.95 1012.78 1012.47 1011.99 1011.54 1011.14 1010.74 1010.48 1010.23 1009.52
1019.06 1019.25 1019.94 1020.68 1020.34 1019.97 1020.08 1019.93 1019.55 1019.21 1018.40 1017.84 1018.07 1017.77 1017.43 1017.22 1016.70 1016.12 1015.29 1014.65 1013.85 1013.31 1013.12 1012.58 1011.95 1011.54 1011.15 1010.82 1010.46 1010.14 1009.93 1009.56
1020.08 1020.72 1020.88 1021.10 1021.15 1020.85 1020.32 1019.76 1019.51 1019.44 1018.75 1017.88 1017.88 1017.92 1017.33 1017.29 1016.97 1016.44 1015.74 1014.77 1013.72 1013.24 1012.81 1012.39 1011.82 1011.19 1010.67 1010.20 1009.71 1009.25 1008.92 1008.79
1020.86 1021.31 1021.45 1021.76 1021.61 1021.28 1021.10 1020.39 1020.05 1019.83 1019.09 1018.69 1018.37 1018.09 1017.74 1017.62 1017.29 1016.92 1015.96 1014.82 1013.84 1013.15 1012.77 1012.11 1011.38 1010.74 1010.26 1009.80 1009.11 1008.57 1008.39 1008.13
1021.31 1021.70 1021.96 1022.09 1021.97 1021.69 1021.35 1020.95 1020.17 1019.91 1019.50 1019.36 1018.75 1018.48 1018.07 1017.73 1017.30 1016.71 1015.68 1014.80 1014.07 1013.33 1012.69 1011.89 1011.13 1010.28 1009.79 1009.36 1008.70 1008.03 1007.43 1007.09
1021.96 1022.46 1022.73 1022.46 1022.48 1022.10 1021.43 1021.08 1020.28 1020.35 1020.02 1019.72 1019.27 1018.39 1017.97 1017.77 1017.22 1016.42 1015.73 1015.12 1014.08 1013.37 1012.66 1011.86 1010.99 1010.13 1009.23 1008.37 1007.71 1007.24 1006.81 1006.23
1022.57 1022.78 1022.95 1023.13 1022.73 1022.12 1021.77 1021.38 1020.77 1020.86 1020.58 1020.07 1019.55 1018.99 1019.20 1018.44 1017.46 1016.57 1015.64 1014.78 1014.24 1013.61 1012.79 1011.76 1010.85 1009.99 1009.24 1008.31 1007.37 1006.77 1006.07 1005.44
1022.90 1023.14 1023.23 1023.28 1022.83 1022.57 1022.25 1022.04 1021.78 1021.58 1021.11 1020.80 1020.53 1019.81 1019.13 1018.35 1017.27 1016.36 1015.85 1015.39 1014.66 1013.89 1012.82 1011.73 1010.78 1009.85 1008.90 1008.11 1007.29 1006.34 1005.37 1004.57
1022.89 1023.07 1023.36 1023.33 1023.07 1023.04 1022.92 1022.70 1022.48 1021.98 1021.55 1021.12 1020.68 1020.08 1019.49 1018.46 1017.59 1017.19 1016.85 1015.98 1015.03 1014.03 1013.03 1012.04 1010.91 1009.74 1008.84 1007.69 1006.47 1005.26 1004.15 1003.45
1023.13 1023.57 1023.91 1023.94 1023.73 1023.61 1023.41 1023.21 1022.92 1022.23 1021.98 1021.43 1021.45 1020.81 1019.68 1019.28 1018.77 1018.09 1017.35 1016.64 1015.64 1014.70 1013.62 1012.46 1011.31 1010.11 1009.05 1007.55 1006.02 1004.77 1003.63 1002.27
1023.55 1023.97 1024.24 1024.21 1023.84 1023.67 1023.71 1023.58 1023.31 1022.78 1022.75 1022.42 1022.14 1021.12 1020.94 1020.21 1019.44 1018.84 1017.99 1017.00 1016.03 1015.26 1014.23 1013.05 1011.82 1010.65 1009.48 1008.06 1006.80 1005.58 1004.45 1003.29
1023.95 1024.37 1024.52 1024.36 1024.25 1024.34 1024.13 1023.79 1023.57 1023.58 1023.46 1023.10 1022.39 1022.19 1021.69 1020.95 1020.20 1019.32 1018.47 1017.66 1016.82 1015.72 1014.67 1013.68 1012.55 1011.36 1010.24 1009.03 1007.95 1006.80 1005.65 1005.20
1024.45 1024.66 1024.73 1024.59 1024.45 1024.53 1024.33 1024.22 1024.23 1024.19 1023.94 1023.56 1023.29 1022.96 1022.14 1021.28 1020.44 1019.84 1018.95 1018.15 1016.88 1016.21 1015.26 1014.50 1013.78 1012.58 1011.37 1010.41 1009.20 1008.18 1007.61 1007.12
Wind_Speed
16 18 17 16 15 15 14 13 16 13 9 6 4 5 5 4 5 5 7 6 8 6 4 1 4 3 3 4 5 5 6 7
15 16 15 15 16 15 16 16 16 12 10 9 4 4 4 4 6 6 8 7 8 7 5 5 4 3 7 9 10 12 5 6
15 14 14 15 14 15 16 15 14 12 9 7 4 4 3 3 6 7 8 7 6 6 6 5 5 5 5 5 10 11 6 6
13 14 13 12 14 13 13 13 13 12 13 8 8 5 4 4 8 7 8 8 8 6 5 5 6 4 4 5 4 8 10 3
11 11 12 11 10 9 11 11 11 11 12 10 10 6 7 5 7 7 7 8 6 6 7 6 6 5 6 5 5 5 4 12
9 9 9 9 10 10 9 10 10 10 10 9 8 7 6 8 7 11 9 7 7 6 4 6 5 5 6 9 8 8 6 6
6 8 8 8 8 10 10 13 11 11 11 11 12 13 13 12 13 11 10 9 8 7 6 5 5 7 7 7 8 8 8 8
4 6 7 11 13 12 10 12 12 12 12 13 11 12 12 13 13 11 14 10 9 10 13 12 9 9 10 10 10 11 10 8
6 7 8 8 10 11 13 13 14 14 14 14 11 11 8 9 12 12 10 9 9 12 11 11 12 10 9 10 9 9 9 11
4 7 8 7 9 11 12 13 13 14 13 12 11 11 11 10 11 11 9 11 10 12 14 13 12 12 11 11 9 11 10 11
5 6 7 7 8 8 9 10 11 13 13 11 10 10 10 9 9 11 11 11 11 12 13 13 13 12 12 12 10 11 12 10
5 5 4 6 7 8 9 10 12 11 11 12 11 10 12 11 9 11 11 11 12 11 11 12 12 12 12 13 11 12 14 13
4 3 5 6 8 9 9 10 11 11 11 11 11 11 9 10 10 11 12 12 12 12 12 12 12 12 12 13 13 13 15 16
3 4 6 7 8 9 9 9 9 10 10 10 10 10 10 12 12 13 13 13 12 12 13 13 13 13 12 12 13 14 16 17
4 6 6 8 9 9 10 10 10 10 10 10 10 11 11 11 12 13 12 13 13 14 14 13 14 13 14 14 14 14 17 16
5 5 4 6 8 7 8 8 9 10 10 11 11 10 11 12 12 12 12 12 13 14 15 14 15 14 14 17 14 12 13 11
4 4 4 5 7 8 7 8 8 9 9 10 10 11 10 10 11 11 11 13 13 13 16 16 16 15 31 30 20 15 15 16
4 4 3 3 6 7 7 8 8 8 8 9 11 10 9 9 10 11 13 13 12 14 17 17 19 22 36 32 28 15 17 18
4 2 3 5 5 6 7 7 7 7 8 9 9 9 9 9 11 12 14 12 15 14 18 19 18 19 36 34 27 17 17 19
Wind_Direction
37 40 38 37 34 31 29 26 21 17 17 0 12 13 15 38 39 25 26 9 355 357 17 219 212 236 248 222 168 212 254 261
47 39 34 33 29 30 27 21 17 21 19 10 13 28 337 6 14 15 23 4 357 354 351 345 331 281 240 246 245 250 231 246
41 34 33 33 31 19 18 19 17 20 17 12 338 326 320 346 9 351 7 349 347 346 338 331 344 328 315 256 231 238 239 226
35 33 28 25 25 19 17 17 14 13 12 9 1 338 353 12 351 336 339 336 330 334 336 332 331 322 309 307 286 251 235 228
45 29 24 21 18 9 16 10 16 15 9 18 20 352 341 335 318 318 322 321 322 331 324 329 324 316 307 295 290 262 226 239
51 34 27 20 18 18 8 0 14 10 6 27 16 354 338 314 325 326 335 330 315 312 326 324 318 311 301 302 305 302 295 255
67 45 5 10 18 22 5 358 5 4 9 19 9 356 344 335 337 337 331 327 324 323 317 296 283 294 289 287 290 288 283 280
106 72 31 355 2 11 4 3 360 359 5 11 0 351 345 335 332 324 323 318 320 321 315 310 305 296 288 278 271 272 269 263
50 25 18 10 359 358 3 5 358 355 355 4 356 350 344 333 326 320 309 308 313 310 305 305 300 290 284 277 273 263 264 267
52 31 28 4 0 3 358 354 357 351 350 350 345 345 339 330 325 314 313 316 313 315 308 300 296 293 284 279 270 262 254 255
61 36 16 359 3 356 354 348 353 345 349 348 340 338 336 326 320 320 325 323 317 313 306 305 301 296 291 279 265 263 260 248
53 35 358 7 2 357 356 352 358 349 347 345 337 344 348 332 336 344 339 327 331 325 320 311 309 304 301 290 278 268 256 254
66 31 13 14 6 8 3 357 3 352 343 347 346 351 338 339 349 349 348 349 346 340 331 330 327 319 308 297 292 282 273 261
83 56 29 13 14 7 4 1 359 349 349 354 346 356 350 2 354 1 358 352 351 346 345 340 338 330 326 311 294 281 272 266
71 42 21 14 14 6 1 360 353 355 351 352 351 353 352 0 3 1 356 353 355 356 354 350 351 349 338 328 310 280 255 250
59 45 22 18 19 11 2 358 355 359 352 355 350 344 2 0 1 358 358 358 358 359 356 1 3 5 356 351 348 347 358 260
75 50 27 28 17 8 357 3 1 5 358 356 345 358 353 360 -0 355 356 -0 4 5 7 4 9 14 9 9 12 16 18 24
77 51 44 28 20 353 356 0 4 2 354 354 3 353 353 1 3 4 4 2 6 16 15 13 14 18 17 13 16 23 29 29
79 60 30 23 16 355 356 2 5 1 1 3 2 350 1 8 18 11 8 1 13 16 19 15 16 16 19 16 16 22 29 28